Крушевац, метеограме

Крушевац: време по сату
Петак, 14 Маја
Време Падавине Температура Осећа се Притисак Влажност Ветар
08:00 0.14 мм +15.8° +16.1° 743.000 мм.ж.с 68% 1 м/с, Ј
09:00 0.14 мм +17.6° +17.7° 743.000 мм.ж.с 60% 1 м/с, ЈЗ
10:00 0.14 мм +19.4° +19.4° 743.000 мм.ж.с 53% 1 м/с, ЈЗ
11:00 0.05 мм +20.2° +20° 742.000 мм.ж.с 49% 2 м/с, ЈЗ
12:00 0.05 мм +21° +20.6° 742.000 мм.ж.с 45% 2 м/с, ЈЗ
13:00 0.05 мм +21.8° +21.3° 742.000 мм.ж.с 42% 2 м/с, З
14:00 0.06 мм +20.7° +20.4° 742.000 мм.ж.с 48% 2 м/с, З
15:00 0.06 мм +19.6° +19.6° 742.000 мм.ж.с 54% 2 м/с, З
16:00 0.06 мм +18.5° +18.7° 743.000 мм.ж.с 60% 2 м/с, З
17:00 0.08 мм +16.9° +17.2° 743.000 мм.ж.с 66% 2 м/с, ЈЗ
18:00 0.08 мм +15.3° +15.7° 743.000 мм.ж.с 72% 1 м/с, ЈЗ
19:00 0.08 мм +13.7° +14.1° 743.000 мм.ж.с 78% 1 м/с, Ј
20:00 0 мм +12.9° +13.3° 743.000 мм.ж.с 79% 1 м/с, Ј
21:00 0 мм +12° +12.4° 744.000 мм.ж.с 79% 1 м/с, Ј
22:00 0 мм +11.2° +11.5° 744.000 мм.ж.с 80% 2 м/с, Ј
23:00 0 мм +10.7° +10.9° 744.000 мм.ж.с 80% 1 м/с, Ј
Субота, 15 Маја
Време Падавине Температура Осећа се Притисак Влажност Ветар
00:00 0 мм +10.1° +10.3° 744.000 мм.ж.с 80% 1 м/с, Ј
01:00 0 мм +9.6° +9.8° 744.000 мм.ж.с 80% 1 м/с, Ј
02:00 0 мм +9.2° +9.4° 744.000 мм.ж.с 81% 1 м/с, Ј
03:00 0 мм +8.9° +9° 744.000 мм.ж.с 81% 1 м/с, Ј
04:00 0 мм +8.5° +8.6° 744.000 мм.ж.с 81% 1 м/с, Ј
05:00 0 мм +10.4° +10.5° 744.000 мм.ж.с 76% 1 м/с, Ј
06:00 0 мм +12.3° +12.4° 744.000 мм.ж.с 71% 1 м/с, ЈИ
07:00 0 мм +14.2° +14.2° 744.000 мм.ж.с 66% 1 м/с, ЈИ
08:00 0 мм +16.1° +16.1° 743.000 мм.ж.с 62% 1 м/с, ЈИ
09:00 0 мм +18° +17.9° 743.000 мм.ж.с 57% 1 м/с, И
10:00 0 мм +19.8° +19.8° 743.000 мм.ж.с 52% 2 м/с, И
11:00 0.12 мм +20.1° +20.1° 742.000 мм.ж.с 53% 2 м/с, ЈИ
12:00 0.12 мм +20.3° +20.4° 742.000 мм.ж.с 54% 2 м/с, ЈИ
13:00 0.12 мм +20.6° +20.7° 742.000 мм.ж.с 55% 2 м/с, ЈИ
14:00 0.22 мм +19.8° +20.2° 742.000 мм.ж.с 61% 2 м/с, ЈИ
15:00 0.22 мм +19.1° +19.7° 742.000 мм.ж.с 66% 2 м/с, ЈИ
16:00 0.22 мм +18.3° +19.1° 742.000 мм.ж.с 72% 2 м/с, ЈИ
17:00 0.18 мм +17° +17.7° 742.000 мм.ж.с 76% 1 м/с, ЈИ
18:00 0.18 мм +15.6° +16.3° 742.000 мм.ж.с 81% 1 м/с, И
19:00 0.18 мм +14.2° +15° 742.000 мм.ж.с 86% 1 м/с, СИ
20:00 0.09 мм +13.9° +14.7° 742.000 мм.ж.с 86% 1 м/с, И
21:00 0.09 мм +13.7° +14.5° 742.000 мм.ж.с 87% 1 м/с, Ј
22:00 0.09 мм +13.5° +14.2° 743.000 мм.ж.с 88% 1 м/с, ЈЗ
23:00 0 мм +13° +13.7° 742.000 мм.ж.с 88% 1 м/с, Ј
Недеља, 16 Маја
Време Падавине Температура Осећа се Притисак Влажност Ветар
00:00 0 мм +12.5° +13.2° 742.000 мм.ж.с 89% 1 м/с, Ј
01:00 0 мм +12° +12.6° 742.000 мм.ж.с 90% 1 м/с, Ј
02:00 0 мм +11.6° +12.2° 742.000 мм.ж.с 90% 1 м/с, Ј
03:00 0 мм +11.2° +11.8° 742.000 мм.ж.с 91% 1 м/с, Ј
04:00 0 мм +10.8° +11.4° 742.000 мм.ж.с 91% 1 м/с, Ј
05:00 0 мм +12.3° +12.9° 743.000 мм.ж.с 87% 1 м/с, Ј
06:00 0 мм +13.7° +14.4° 743.000 мм.ж.с 83% 1 м/с, Ј
07:00 0 мм +15.2° +15.8° 743.000 мм.ж.с 78% 1 м/с, Ј

Такође

Meteograms hourly weather Мапе времена Преглед времена
Meteograms hourly weather Мапе времена Преглед времена
 
Време у Србији:
О проjекту
© meteoprog.rs 2003-2021.
Meteoprog.ua - погода в Украине 0.0492
sitemap